When you browse on this site, cookies collect data to enhance your experience and personalize the content and advertising you see.
Visit our Privacy Policy to learn more. By continuing to use the site, you agree to this use of cookies and data.
  • In United Kingdom
  • List of Countries
  • For 7 days
  • Water Temperature
  • Weather Map
  • Weather Widgets
  • user-avatar
    Login

    Hourly Weather Holhol

    Today, 15 September, Sunday

    Time Temperature Precipitation Wind Pressure Humidity
    00:00 +34°C° 0 mm 1 mps 711 mmHg 44%
    01:00 +34°C° 0 mm 1 mps 711 mmHg 45%
    02:00 +33°C° 0 mm 1 mps 711 mmHg 46%
    03:00 +31°C° 0 mm 0 mps 710 mmHg 46%
    04:00 +31°C° 0 mm 0 mps 711 mmHg 47%
    05:00 +31°C° 0 mm 0 mps 711 mmHg 48%
    06:00 +30°C° 0 mm 0 mps 711 mmHg 49%
    07:00 +33°C° 0.1 mm 1 mps 712 mmHg 45%
    08:00 +35°C° 0.1 mm 2 mps 712 mmHg 41%
    09:00 +37°C° 0 mm 3 mps 713 mmHg 37%
    10:00 +37°C° 0 mm 3 mps 713 mmHg 34%
    11:00 +38°C° 0 mm 3 mps 712 mmHg 31%
    12:00 +39°C° 0 mm 3 mps 712 mmHg 29%
    13:00 +40°C° 0 mm 3 mps 711 mmHg 28%
    14:00 +41°C° 0 mm 4 mps 710 mmHg 27%
    15:00 +41°C° 0 mm 4 mps 709 mmHg 27%
    16:00 +40°C° 0.1 mm 4 mps 710 mmHg 30%
    17:00 +38°C° 0.1 mm 3 mps 710 mmHg 33%
    18:00 +37°C° 0.1 mm 3 mps 710 mmHg 35%
    19:00 +36°C° 0.1 mm 2 mps 710 mmHg 39%
    20:00 +35°C° 0.1 mm 2 mps 711 mmHg 43%
    21:00 +33°C° 0.1 mm 1 mps 711 mmHg 46%
    22:00 +34°C° 0.4 mm 2 mps 711 mmHg 47%
    23:00 +34°C° 0.4 mm 4 mps 711 mmHg 47%

    Tomorrow, 16 September, Monday

    Time Temperature Precipitation Wind Pressure Humidity
    00:00 +33°C° 0.4 mm 5 mps 711 mmHg 47%
    01:00 +33°C° 0 mm 4 mps 711 mmHg 47%
    02:00 +33°C° 0 mm 4 mps 710 mmHg 48%
    03:00 +33°C° 0 mm 3 mps 710 mmHg 48%
    04:00 +33°C° 0.2 mm 4 mps 711 mmHg 48%
    05:00 +32°C° 0.2 mm 5 mps 711 mmHg 49%
    06:00 +32°C° 0.2 mm 7 mps 711 mmHg 49%
    07:00 +33°C° 0.1 mm 7 mps 712 mmHg 49%
    08:00 +33°C° 0.1 mm 7 mps 712 mmHg 48%
    09:00 +34°C° 0.1 mm 8 mps 713 mmHg 48%
    10:00 +35°C° 0 mm 7 mps 712 mmHg 45%
    11:00 +36°C° 0 mm 7 mps 712 mmHg 41%
    12:00 +38°C° 0 mm 7 mps 712 mmHg 37%
    13:00 +39°C° 0 mm 6 mps 711 mmHg 35%
    14:00 +39°C° 0 mm 5 mps 710 mmHg 32%
    15:00 +39°C° 0 mm 3 mps 710 mmHg 30%
    16:00 +38°C° 0 mm 4 mps 710 mmHg 31%
    17:00 +38°C° 0 mm 4 mps 710 mmHg 33%
    18:00 +37°C° 0 mm 4 mps 710 mmHg 35%
    19:00 +36°C° 0.2 mm 4 mps 710 mmHg 38%
    20:00 +35°C° 0.2 mm 4 mps 710 mmHg 42%
    21:00 +34°C° 0.2 mm 3 mps 711 mmHg 45%
    22:00 +34°C° 0.2 mm 3 mps 711 mmHg 44%
    23:00 +34°C° 0.2 mm 2 mps 711 mmHg 43%

    Day after tomorrow, 17 September, Tuesday

    Time Temperature Precipitation Wind Pressure Humidity
    00:00 +34°C° 0.2 mm 2 mps 711 mmHg 42%
    01:00 +34°C° 0.1 mm 2 mps 711 mmHg 45%
    02:00 +33°C° 0.1 mm 3 mps 710 mmHg 47%
    03:00 +33°C° 0.1 mm 3 mps 710 mmHg 50%
    04:00 +31°C° 0.4 mm 3 mps 710 mmHg 49%
    05:00 +32°C° 0.4 mm 4 mps 711 mmHg 48%
    06:00 +32°C° 0.4 mm 4 mps 711 mmHg 47%
    07:00 +33°C° 0 mm 5 mps 712 mmHg 44%
    08:00 +34°C° 0 mm 6 mps 712 mmHg 42%
    09:00 +35°C° 0 mm 7 mps 713 mmHg 39%
    10:00 +36°C° 0 mm 7 mps 712 mmHg 36%
    11:00 +38°C° 0 mm 6 mps 712 mmHg 34%
    12:00 +39°C° 0 mm 5 mps 712 mmHg 32%
    13:00 +40°C° 0 mm 5 mps 711 mmHg 30%
    14:00 +40°C° 0 mm 4 mps 710 mmHg 29%
    15:00 +40°C° 0 mm 3 mps 709 mmHg 28%
    16:00 +39°C° 0 mm 3 mps 709 mmHg 29%
    17:00 +39°C° 0 mm 3 mps 709 mmHg 30%
    18:00 +38°C° 0 mm 3 mps 709 mmHg 31%
    19:00 +37°C° 0.1 mm 3 mps 710 mmHg 33%
    20:00 +36°C° 0.1 mm 3 mps 710 mmHg 36%
    21:00 +34°C° 0.1 mm 3 mps 710 mmHg 38%
    22:00 +35°C° 0.1 mm 3 mps 710 mmHg 38%
    23:00 +35°C° 0.1 mm 3 mps 710 mmHg 37%

    18 September, Wednesday

    Time Temperature Precipitation Wind Pressure Humidity
    00:00 +35°C° 0.1 mm 3 mps 710 mmHg 37%
    01:00 +35°C° 0 mm 3 mps 710 mmHg 38%
    02:00 +35°C° 0 mm 2 mps 710 mmHg 40%
    03:00 +34°C° 0 mm 2 mps 709 mmHg 42%
    04:00 +34°C° 0 mm 2 mps 710 mmHg 43%
    05:00 +34°C° 0 mm 2 mps 710 mmHg 45%
    06:00 +32°C° 0 mm 2 mps 711 mmHg 46%
    07:00 +34°C° 0 mm 4 mps 711 mmHg 42%
    08:00 +35°C° 0 mm 5 mps 712 mmHg 38%
    09:00 +36°C° 0 mm 6 mps 712 mmHg 34%
    10:00 +38°C° 0 mm 6 mps 712 mmHg 32%
    11:00 +39°C° 0 mm 5 mps 712 mmHg 30%
    12:00 +40°C° 0 mm 5 mps 711 mmHg 29%
    13:00 +41°C° 0 mm 4 mps 711 mmHg 28%
    14:00 +41°C° 0 mm 4 mps 710 mmHg 27%
    15:00 +40°C° 0 mm 3 mps 709 mmHg 26%
    16:00 +39°C° 0 mm 3 mps 709 mmHg 29%
    17:00 +38°C° 0 mm 4 mps 709 mmHg 33%
    18:00 +37°C° 0 mm 4 mps 709 mmHg 36%
    19:00 +36°C° 0 mm 3 mps 710 mmHg 39%
    20:00 +35°C° 0 mm 3 mps 710 mmHg 42%
    21:00 +34°C° 0 mm 2 mps 710 mmHg 45%
    22:00 +34°C° 0 mm 2 mps 710 mmHg 45%
    23:00 +34°C° 0 mm 2 mps 710 mmHg 45%

    19 September, Thursday

    Time Temperature Precipitation Wind Pressure Humidity
    00:00 +34°C° 0 mm 2 mps 710 mmHg 45%
    01:00 +34°C° 0 mm 2 mps 710 mmHg 45%
    02:00 +34°C° 0 mm 2 mps 710 mmHg 44%
    03:00 +34°C° 0 mm 2 mps 710 mmHg 44%
    04:00 +34°C° 0.1 mm 2 mps 710 mmHg 45%
    05:00 +32°C° 0.1 mm 2 mps 710 mmHg 46%
    06:00 +32°C° 0.1 mm 1 mps 711 mmHg 47%
    07:00 +34°C° 0 mm 2 mps 711 mmHg 43%
    08:00 +35°C° 0 mm 3 mps 712 mmHg 40%
    09:00 +37°C° 0 mm 3 mps 712 mmHg 36%
    10:00 +37°C° 0 mm 3 mps 712 mmHg 34%
    11:00 +38°C° 0 mm 3 mps 711 mmHg 32%
    12:00 +39°C° 0 mm 3 mps 711 mmHg 29%
    13:00 +39°C° 0 mm 3 mps 710 mmHg 29%
    14:00 +39°C° 0 mm 3 mps 710 mmHg 29%
    15:00 +41°C° 0 mm 4 mps 709 mmHg 29%
    16:00 +38°C° 0 mm 3 mps 709 mmHg 33%
    17:00 +37°C° 0 mm 3 mps 709 mmHg 38%
    18:00 +36°C° 0 mm 3 mps 708 mmHg 42%
    19:00 +35°C° 0 mm 3 mps 709 mmHg 43%
    20:00 +35°C° 0 mm 3 mps 709 mmHg 44%
    21:00 +35°C° 0 mm 3 mps 710 mmHg 45%
    22:00 +34°C° 0 mm 2 mps 710 mmHg 46%
    23:00 +33°C° 0 mm 1 mps 709 mmHg 47%

    20 September, Friday

    Time Temperature Precipitation Wind Pressure Humidity
    00:00 +33°C° 0 mm 1 mps 709 mmHg 48%
    01:00 +33°C° 0 mm 1 mps 709 mmHg 47%
    02:00 +33°C° 0 mm 1 mps 709 mmHg 46%
    03:00 +33°C° 0 mm 1 mps 709 mmHg 45%
    04:00 +33°C° 0 mm 1 mps 709 mmHg 46%
    05:00 +32°C° 0 mm 1 mps 709 mmHg 47%
    06:00 +32°C° 0 mm 2 mps 709 mmHg 48%
    07:00 +34°C° 0 mm 2 mps 710 mmHg 45%
    08:00 +34°C° 0 mm 1 mps 710 mmHg 41%
    09:00 +35°C° 0 mm 1 mps 711 mmHg 38%
    10:00 +37°C° 0 mm 2 mps 710 mmHg 35%
    11:00 +38°C° 0 mm 2 mps 710 mmHg 32%
    12:00 +39°C° 0 mm 3 mps 709 mmHg 29%
    13:00 +39°C° 0 mm 3 mps 709 mmHg 30%
    14:00 +40°C° 0 mm 4 mps 708 mmHg 31%
    15:00 +40°C° 0 mm 4 mps 708 mmHg 32%
    16:00 +38°C° 0 mm 4 mps 708 mmHg 37%
    17:00 +36°C° 0 mm 4 mps 708 mmHg 41%
    18:00 +35°C° 0 mm 3 mps 707 mmHg 46%
    19:00 +35°C° 0 mm 3 mps 708 mmHg 47%
    20:00 +34°C° 0 mm 3 mps 708 mmHg 47%
    21:00 +34°C° 0 mm 3 mps 709 mmHg 48%
    22:00 +33°C° 0 mm 3 mps 709 mmHg 49%
    23:00 +32°C° 0 mm 2 mps 709 mmHg 51%
    Show more